This demonstration page uses our WeatherBlox Daily Observations layout. Learn more.

Left ArrowRight Arrow

34.16533, -84.80231

Hourly Observations for October 1, 2019

Temp ( °F °C ) Dew Point ( °F °C ) Humidity (%) Winds ( mph kmh ) Pressure ( in mb ) Visibility ( mi km ) Precip ( " mm )
12:53 am 00:53 Clear 70 21.1 65 18.3 84 84 Calm 30.07 1018 10 16 0.00 0.00
1:53 am 01:53 Clear 70 21.1 65 18.3 84 84 Calm 30.06 1018 10 16 0.00 0.00
2:53 am 02:53 Clear 70 21.1 66 18.9 87 87 Calm 30.06 1018 10 16 0.00 0.00
3:53 am 03:53 Clear 72 22.2 67 19.4 84 84 Calm 30.05 1018 10 16 0.00 0.00
4:53 am 04:53 Clear 72 22.2 67 19.4 84 84 Calm 30.05 1018 10 16 0.00 0.00
5:53 am 05:53 Clear 74 23.3 68 20 82 82 ESE 3 6 30.06 1018 10 16 0.00 0.00
6:53 am 06:53 Clear 74 23.3 68 20 82 82 Calm 30.08 1019 10 16 0.00 0.00
7:53 am 07:53 Sunny 74 23.3 68 20 82 82 E 3 6 30.10 1019 10 16 0.00 0.00
8:53 am 08:53 Sunny 78 25.6 69 20.6 74 74 VRB 5 7 30.11 1020 10 16 0.00 0.00
9:53 am 09:53 Sunny 82 27.8 69 20.6 65 65 ENE 6 9 30.13 1020 10 16 0.00 0.00
10:53 am 10:53 Sunny 85 29.4 69 20.6 59 59 E 7 11 30.13 1020 10 16 0.00 0.00
11:53 am 11:53 Sunny 88 31.1 69 20.6 54 54 VRB 3 6 30.12 1020 10 16 0.00 0.00
12:53 pm 12:53 Sunny 92 33.3 69 20.6 47 47 VRB 3 6 30.10 1019 10 16 0.00 0.00
1:53 pm 13:53 Sunny 95 35 66 18.9 39 39 NE 8 13 30.07 1018 10 16 0.00 0.00
2:53 pm 14:53 Mostly Sunny 96 35.6 67 19.4 39 39 VRB 7 11 30.04 1017 10 16 0.00 0.00
3:53 pm 15:53 Mostly Sunny 96 35.6 65 18.3 36 36 NE 6 9 30.02 1017 10 16 0.00 0.00
4:53 pm 16:53 Sunny 96 35.6 64 17.8 35 35 E 5 7 30.01 1016 10 16 0.00 0.00
5:53 pm 17:53 Mostly Cloudy 94 34.4 65 18.3 38 38 Calm 30.01 1016 10 16 0.00 0.00
6:53 pm 18:53 Mostly Sunny 87 30.6 67 19.4 51 51 Calm 30.01 1016 10 16 0.00 0.00
7:53 pm 19:53 Mostly Clear 82 27.8 68 20 63 63 Calm 30.01 1016 10 16 0.00 0.00
8:53 pm 20:53 Partly Cloudy 81 27.2 68 20 65 65 Calm 30.02 1017 10 16 0.00 0.00
9:53 pm 21:53 Clear 77 25 69 20.6 77 77 Calm 30.02 1017 10 16 0.00 0.00
10:53 pm 22:53 Clear 78 25.6 68 20 71 71 ENE 3 6 30.01 1016 10 16 0.00 0.00
11:53 pm 23:53 Clear 74 23.3 68 20 82 82 Calm 30.01 1016 10 16 0.00 0.00

Powered by AerisWeather